Zurück zum Katalog

COSMOS 1946

GLONASS

AktivNavigationMEO
NORAD 19163·PAYLOAD·🇷🇺 Russia

Gestartet May 21, 1988 von Baikonur Cosmodrome

Loading…

Nächste Überflüge (nächste 24 Stunden)

TLE

AktuellSource: Space-Track

Epoche: Sep 13, 2026, 11:54 UTC

1 19163U 88043A   26256.49592995 -.00000008  00000-0  00000-0 0  9995
2 19163  65.0232  70.5997 0004769  86.3299 277.2687  2.13102895297480

Verfolge COSMOS 1946 in Echtzeit mit AllMySat

Download on the App Store